sat.trackr.live / text

‹ back to catalog

UNKNOWN

NORAD 82597

UNKNOWN UNKNOWN UNKNOWN

§ Identity

Operator
Country
Launch date
Launch site
Launch vehicle
Mass (kg)
RCS (m²)

External: N2YO · Heavens-Above

§ Orbital elements

Epoch: 2026-09-18T08:45:23.707008Z

Period
100.23 min
Inclination
66.7686°
Eccentricity
0.0085664
Mean motion
14.36627160 rev/d
Perigee alt
708.4 km
Apogee alt
830.9 km
Semi-major
7,147.8 km
B*
3.2412e-4
RAAN
131.0906°
Arg perigee
102.7066°
Mean anomaly
258.3629°
Rev number
66,913

§ Raw data

UNKNOWN1 82597U          26261.36485772  .00000908  00000+0  32412-3 0  99912 82597  66.7686 131.0906 0085664 102.7066 258.3629 14.36627160669139

JSON: /api/v1/satellites/82597 · /tle

For live sub-satellite position, see the globe view (requires WebGL).

§ Visibility from observer

Set your observer location to see the next 7 days of passes ≥ 10°. The values pass through the URL so the page stays shareable.

No JS? Fill the form by hand. The geolocation button needs JavaScript.